Vorticity
5 7 4 1 5 9 9 10 11 10 7 8 8 7 5 5 5 3 2 3 3 3 3 3 3 5 7 8 9 8 8 9 9 8 9 9 8 8 8 8 8 7 6 6 6 5 5 4 4 5 5 6 6 7 7 5 3 1 0 1 3 4 4 5 6 6 6 5 5 7 7 7 8 7 7 7 7 8 7 8 8 8 8 7 8 8 8 8
12 10 4 4 8 10 12 13 12 12 10 9 9 8 7 5 4 3 3 3 3 3 4 5 6 7 8 8 8 8 8 9 8 8 9 10 10 10 10 10 10 9 9 9 9 8 8 7 6 6 5 5 4 4 4 3 4 4 4 7 8 9 9 10 9 8 8 7 6 7 9 8 9 10 9 9 9 9 8 9 10 8 8 8 9 8 9 9
15 13 11 9 10 11 12 11 8 7 6 6 5 5 5 4 4 4 4 4 4 6 6 7 7 7 8 8 9 10 10 10 10 11 10 10 10 10 10 10 11 11 11 11 11 11 10 10 10 9 8 8 8 8 7 8 9 8 9 10 11 11 10 11 12 10 8 7 6 8 11 11 10 10 9 10 10 9 10 11 9 7 8 9 8 8 9 9
11 11 12 11 9 9 7 6 5 5 5 5 4 4 4 4 5 6 7 7 7 8 8 8 8 8 9 9 10 10 10 10 10 10 9 9 9 9 9 9 9 9 9 10 10 10 10 11 11 11 11 10 10 10 9 10 10 8 10 11 11 10 8 11 12 9 9 9 9 9 10 10 10 10 10 11 9 10 12 10 8 9 9 8 7 8 8 8
10 9 8 7 6 6 5 5 6 6 5 5 5 4 5 6 7 8 9 10 10 10 11 11 11 10 11 10 10 10 9 9 8 8 7 8 7 7 8 7 7 7 7 7 8 8 8 9 9 10 11 10 10 11 11 10 10 9 11 12 10 9 10 12 11 9 10 9 9 9 9 8 8 9 9 8 9 9 9 7 8 10 9 8 9 9 8 8
8 5 5 5 4 4 3 4 4 4 5 6 7 6 7 8 8 9 9 11 11 12 12 12 13 12 11 10 10 8 7 7 6 7 7 7 7 7 7 7 7 7 7 8 7 8 8 8 9 9 10 10 10 11 11 10 11 9 11 12 9 8 9 9 8 8 8 7 8 8 7 8 8 8 8 8 10 9 9 8 8 9 8 9 9 8 8 8
5 5 6 5 6 6 5 6 5 5 6 6 8 8 9 9 10 11 12 13 13 13 12 11 11 10 9 8 7 6 6 7 6 7 7 6 7 7 7 7 7 7 8 8 8 9 9 9 9 9 9 9 9 9 9 8 8 8 9 9 7 8 8 8 8 9 9 9 9 9 9 9 9 8 8 9 9 8 7 7 7 7 7 6 6 6 6 5
6 6 5 5 5 6 5 7 8 7 6 6 8 10 11 11 11 12 12 12 11 10 9 8 7 7 7 6 6 6 6 7 7 7 7 7 8 8 8 8 8 8 9 9 9 9 9 9 9 8 8 8 8 7 7 7 9 10 9 9 9 10 9 9 9 8 7 7 6 6 6 5 5 5 4 5 5 4 4 5 6 6 5 5 5 5 5 6
4 4 4 5 5 5 5 5 6 7 8 8 10 11 11 10 10 10 10 8 8 7 7 7 7 6 7 7 7 7 7 7 8 8 7 7 7 7 8 8 8 9 9 9 9 8 8 8 8 8 9 9 9 9 10 10 10 9 8 9 8 8 6 5 5 4 3 3 3 3 4 4 5 4 5 7 6 5 6 7 7 7 7 7 8 8 8 8
2 3 3 4 6 6 6 5 5 7 10 10 10 9 8 7 8 8 7 7 7 6 7 7 7 7 7 7 7 7 7 6 6 6 6 6 7 7 8 8 8 7 8 8 8 9 9 9 10 11 10 10 10 9 8 7 6 5 5 4 3 4 4 4 4 3 3 4 5 5 6 7 6 5 7 9 7 7 8 8 8 8 8 8 8 9 9 9
2 2 2 5 6 5 6 5 7 10 11 9 7 7 7 6 6 6 6 5 6 6 7 7 6 6 6 6 6 6 5 5 6 6 7 7 7 8 8 7 8 8 9 9 10 10 11 11 11 9 7 7 5 4 4 4 3 2 2 2 3 4 3 4 5 5 6 7 7 6 7 7 6 7 9 10 8 7 7 8 8 8 8 9 9 9 9 10
2 3 3 4 5 5 6 7 10 12 9 7 7 6 6 7 6 5 5 5 6 6 6 6 6 6 6 6 6 5 5 6 8 8 9 9 8 9 8 9 9 10 11 11 11 9 8 7 5 4 3 3 2 2 3 3 2 2 3 3 4 4 3 7 8 7 7 7 7 5 5 5 5 7 10 10 8 7 8 9 9 9 10 10 9 10 10 10
3 2 2 3 5 6 7 9 12 9 6 6 7 6 6 7 6 5 6 6 6 6 6 6 6 6 6 6 6 7 8 8 9 10 10 9 10 10 10 11 11 11 11 9 8 6 4 3 1 1 2 3 3 3 4 3 4 4 5 5 5 5 7 10 9 7 9 9 8 6 7 8 8 10 10 9 8 8 9 10 9 9 10 9 9 10 9 9
2 1 2 4 6 7 9 11 11 6 5 6 5 7 6 5 5 5 6 6 6 6 7 7 6 7 6 7 8 9 9 9 9 10 10 10 11 12 11 11 11 10 7 4 2 1 1 1 1 2 3 4 4 4 5 5 7 6 6 9 9 8 9 9 7 9 11 10 8 9 11 12 11 12 11 10 11 11 11 11 10 10 10 10 10 9 9 9
1 2 3 6 7 9 11 11 10 6 5 6 6 7 5 5 5 6 7 6 6 6 6 7 6 7 7 8 9 9 9 9 10 10 11 11 10 10 9 7 6 6 4 2 1 1 1 2 2 3 4 5 5 6 6 6 9 8 10 13 9 8 10 9 9 11 12 9 10 11 12 12 13 10 10 11 11 12 12 12 11 11 11 11 11 11 11 10
1 3 4 7 8 11 13 11 9 6 6 6 6 7 5 6 6 7 7 5 6 6 6 7 6 7 8 9 10 9 10 10 11 11 10 10 8 8 4 2 2 2 1 1 2 2 3 4 4 5 6 6 6 7 8 9 9 7 8 11 9 10 12 11 10 11 11 9 10 10 9 11 12 10 11 13 11 11 12 11 11 11 11 11 11 11 11 11
2 2 3 7 8 11 13 10 8 6 6 6 5 6 5 6 7 6 6 5 6 6 6 7 7 9 10 10 10 11 12 11 11 10 9 8 5 4 1 0 1 0 0 1 2 3 5 6 6 6 7 8 9 9 10 11 11 10 9 8 8 10 10 10 11 9 9 9 10 10 10 11 11 10 12 13 11 11 11 10 11 10 10 10 11 11 10 10
1 0 4 7 8 13 13 9 7 6 5 5 5 5 5 7 7 5 5 5 6 6 7 9 9 10 10 10 11 11 10 10 10 8 6 5 3 3 3 2 2 2 2 4 5 6 6 7 7 8 10 11 11 11 11 10 10 12 12 10 10 11 10 11 11 10 9 11 11 11 12 11 10 11 10 9 9 10 10 10 10 10 10 10 10 10 10 11
1 1 5 6 8 13 12 8 6 5 5 6 5 5 6 7 5 5 5 5 7 8 9 10 10 10 11 11 10 9 9 10 9 5 1 1 2 4 4 4 4 5 5 6 7 7 8 10 10 12 13 11 10 10 11 11 10 11 11 11 11 11 11 11 12 12 10 11 11 10 11 11 10 12 10 9 11 11 10 10 10 10 10 10 10 10 10 10
1 2 4 6 9 12 11 7 5 5 6 6 5 5 6 5 5 6 6 7 9 11 11 11 11 10 11 10 7 8 10 11 7 0 -2 0 4 5 5 6 6 7 8 9 10 10 11 12 12 11 10 9 9 10 10 10 10 10 10 10 10 10 10 10 10 10 10 11 11 11 11 10 10 11 11 11 11 11 11 11 12 12 12 12 12 12 12 12
1 2 5 6 9 12 11 7 6 6 5 5 5 5 5 5 7 7 7 10 12 12 11 10 10 11 11 6 4 7 8 8 5 2 2 4 6 6 7 7 8 9 10 11 11 11 12 10 9 9 9 10 10 11 11 11 11 11 11 11 11 11 11 11 11 10 10 10 10 10 12 11 11 12 13 14 14 14 15 15 15 15 15 15 14 14 14 15
1 3 6 6 10 14 11 6 5 5 5 6 5 5 6 5 7 8 10 13 12 11 9 10 11 11 7 3 4 6 5 5 5 5 6 6 7 8 9 10 11 11 11 11 10 9 9 8 9 11 12 14 14 15 14 14 14 13 14 14 12 13 13 13 11 11 13 15 14 17 19 17 16 17 15 15 15 14 14 13 12 12 12 12 12 11 10 11
2 4 6 7 11 13 10 6 5 6 6 5 4 5 6 6 9 11 12 12 10 9 9 10 10 6 3 4 5 6 5 6 6 7 7 8 10 10 10 11 10 10 9 9 9 9 12 14 18 20 20 20 19 19 18 18 18 15 14 14 13 13 15 17 18 16 16 17 18 17 18 16 13 13 11 9 9 9 9 9 8 8 8 8 7 7 7 7
2 5 6 8 12 13 10 6 5 7 6 4 5 6 6 8 12 12 11 10 8 9 10 9 5 3 4 6 6 6 6 7 8 9 10 10 11 10 10 10 9 10 10 12 15 18 21 22 24 22 21 21 19 18 17 18 19 17 13 13 14 13 11 12 15 14 11 10 9 6 10 13 9 8 6 5 6 7 7 7 6 6 5 6 5 5 6 5
4 6 7 9 13 13 8 6 7 7 4 5 6 5 7 11 13 11 10 9 8 9 8 4 2 5 7 6 7 8 8 9 11 11 10 11 11 11 11 12 13 15 18 21 24 24 23 21 19 17 16 15 14 14 12 11 13 14 11 10 11 11 10 7 6 7 7 7 6 2 6 10 8 9 6 3 5 7 6 4 4 5 4 5 5 4 6 6
5 7 8 11 14 12 8 7 7 5 5 6 6 7 11 12 12 10 8 8 8 8 4 1 4 8 7 7 9 9 10 12 11 10 12 13 13 14 16 19 22 23 24 25 22 18 16 13 11 9 9 9 8 8 7 7 7 7 7 7 7 6 7 6 4 4 4 4 5 4 4 3 3 7 4 3 6 5 3 3 3 4 4 4 5 5 6 6
6 8 10 14 14 10 8 7 5 6 5 6 7 10 12 12 11 9 7 8 7 5 3 3 7 8 7 9 10 10 12 12 12 13 15 15 16 19 21 23 23 22 21 17 13 11 9 7 5 5 5 5 6 5 4 5 5 5 4 3 4 4 4 5 5 5 3 1 3 5 6 3 2 5 3 3 8 6 3 3 3 4 5 5 6 6 6 8
7 9 12 14 12 8 7 6 5 5 5 8 11 12 11 11 10 7 6 6 5 4 5 6 8 8 9 10 10 11 13 12 13 16 16 16 19 20 20 19 17 17 15 10 7 8 6 5 4 4 4 4 5 5 4 5 5 6 5 3 4 4 3 4 5 6 4 3 5 7 8 5 4 8 7 4 5 6 4 3 4 4 5 6 8 11 14 16
9 12 14 12 9 8 6 5 5 6 8 12 12 12 12 11 8 6 5 5 5 5 7 9 9 9 9 10 11 12 12 12 13 14 14 17 19 18 15 15 13 12 11 8 7 7 6 7 5 4 5 5 5 5 4 5 5 5 5 5 6 7 7 7 8 8 7 5 6 7 6 5 4 5 9 10 8 7 5 3 5 5 6 10 16 19 17 14
11 14 14 10 8 7 5 4 6 8 11 13 13 12 10 8 6 5 4 6 6 6 8 9 9 9 9 10 11 10 11 12 12 11 12 14 15 12 10 9 9 9 9 8 6 6 5 6 5 3 4 5 5 6 5 5 8 8 7 6 6 7 6 6 6 6 6 6 4 5 9 12 12 8 9 16 14 9 7 7 8 9 10 13 17 15 10 7
14 15 12 8 7 6 4 5 8 11 13 13 13 11 6 5 6 5 6 8 7 8 9 9 9 9 9 9 10 10 11 12 11 11 10 10 9 8 7 6 6 6 6 4 4 6 7 7 6 6 6 7 7 7 8 9 10 10 9 10 8 6 6 7 9 11 12 13 9 10 12 13 17 15 11 12 10 7 8 9 10 12 11 12 12 9 5 5
15 14 10 7 6 5 4 7 11 13 14 13 11 8 4 4 6 6 6 7 8 8 8 8 9 8 8 9 10 10 11 11 11 11 11 11 10 9 8 7 6 6 6 7 7 8 10 9 9 9 10 11 9 9 10 9 9 8 9 12 10 12 14 11 12 13 12 12 10 9 8 10 13 13 10 7 4 5 6 7 10 10 10 11 12 9 6 5
15 12 8 6 6 5 6 10 13 14 13 11 8 6 4 5 7 6 5 7 8 7 8 9 8 8 9 9 9 9 9 9 9 9 10 11 11 10 10 10 10 10 10 12 10 9 9 8 9 9 10 11 11 11 11 8 10 11 11 11 12 14 15 11 11 11 9 9 9 7 9 13 11 8 13 14 9 8 9 9 11 10 10 11 10 7 4 4
12 9 6 5 5 6 9 13 14 13 11 8 6 4 4 6 7 6 5 8 8 7 9 8 7 9 9 8 8 8 8 9 8 8 9 9 9 8 10 10 10 10 10 10 9 10 11 10 9 9 8 9 8 9 9 9 10 10 8 9 9 9 9 10 10 10 10 8 7 8 9 10 11 14 20 15 7 8 11 12 12 11 10 9 5 3 3 3
9 7 6 5 6 9 12 14 14 12 8 6 4 4 6 6 6 6 7 8 8 7 8 8 8 9 8 8 8 7 8 9 9 10 10 10 8 8 9 9 8 9 10 9 8 9 9 10 9 9 8 8 8 7 7 8 7 6 6 7 6 5 6 6 5 6 9 7 7 8 6 6 13 21 20 12 10 14 13 12 10 7 7 6 6 7 8 8
7 6 5 6 8 11 13 14 12 9 6 5 4 5 7 6 6 7 7 8 8 7 8 8 8 8 6 7 7 7 9 9 9 9 9 9 8 6 8 8 7 8 8 9 9 6 8 9 7 8 9 7 7 7 7 8 7 7 8 7 6 6 6 6 6 5 6 7 8 6 7 8 11 21 24 18 17 12 4 5 6 6 6 5 6 7 8 9
6 5 6 8 11 13 13 12 10 7 4 4 4 6 6 5 7 7 7 8 7 6 8 8 7 5 5 7 7 7 9 8 7 7 5 7 7 5 6 5 5 5 4 7 8 4 7 10 6 7 9 7 7 8 8 7 6 8 9 6 7 7 6 7 8 7 5 7 8 7 10 9 7 22 26 14 9 5 -2 1 4 4 7 5 3 4 5 6
5 6 8 11 13 13 12 10 8 6 4 5 7 7 5 6 7 7 7 8 7 7 8 7 6 4 4 7 7 6 7 5 5 5 4 4 5 3 4 4 3 3 2 3 4 3 6 8 5 6 7 7 8 7 7 7 6 9 9 7 7 6 7 8 6 7 7 7 8 8 10 12 14 23 18 2 5 9 5 5 5 6 9 8 4 4 4 4
5 8 12 14 13 11 10 9 7 6 4 6 7 6 5 6 7 6 7 8 7 7 7 5 5 4 4 7 6 5 5 3 2 5 4 3 4 2 2 4 4 4 4 3 1 2 4 5 6 6 4 7 9 6 5 6 6 8 8 7 7 6 7 7 5 8 8 8 9 3 8 25 27 16 7 5 9 11 9 11 10 7 8 7 7 8 7 6
7 12 13 13 11 9 9 7 6 6 5 6 6 5 6 7 7 7 7 8 8 6 6 5 3 4 4 5 6 4 4 3 1 3 4 3 4 2 1 3 4 3 5 4 2 2 2 4 6 5 3 6 9 7 5 4 5 7 8 6 6 6 6 6 6 7 6 10 10 2 7 22 15 0 3 9 8 6 7 9 8 6 5 7 10 11 10 9
10 14 12 11 10 9 8 6 5 6 6 7 6 5 6 7 7 7 7 8 8 5 5 4 3 4 4 3 5 3 4 5 1 0 2 1 3 4 2 3 3 3 5 5 5 3 1 3 6 6 4 3 7 8 5 5 4 5 7 6 4 5 4 5 6 5 6 9 9 8 7 1 -6 0 8 7 4 4 4 4 6 6 6 8 11 11 12 12
13 14 10 10 10 8 6 6 6 7 6 6 5 5 7 7 7 8 7 7 7 5 4 4 2 4 4 3 3 1 2 4 3 1 2 1 2 4 4 4 3 4 4 5 7 5 2 3 4 6 5 3 6 7 4 6 5 3 6 5 2 2 2 3 4 4 8 8 8 11 -0 -17 -10 9 10 5 6 5 4 6 7 6 8 9 9 9 9 9
13 12 10 9 9 7 6 7 9 9 6 5 5 6 7 7 7 7 7 6 5 4 4 4 3 4 5 4 3 2 0 1 3 3 3 3 3 3 4 4 5 4 4 5 6 4 3 3 2 6 6 4 6 6 5 7 5 4 5 3 2 4 1 1 3 3 6 7 7 8 -3 -13 0 12 8 7 8 5 5 7 7 7 9 8 6 6 6 7
12 10 9 8 8 7 6 8 9 7 5 4 5 6 6 7 7 7 7 5 4 4 5 5 4 3 5 4 2 3 3 1 2 4 3 4 4 5 5 4 5 5 4 5 6 4 4 3 2 4 4 3 5 5 5 6 5 5 5 1 3 5 3 1 2 2 4 3 1 3 1 0 7 10 10 11 8 5 6 6 6 8 6 6 7 8 7 7
11 10 8 7 7 6 6 8 7 5 4 4 4 5 6 8 7 6 6 4 4 5 5 5 4 2 4 3 1 3 4 3 4 4 4 4 4 6 5 4 6 5 3 5 6 5 6 6 4 5 4 3 4 4 5 5 4 7 7 2 1 3 4 3 1 3 6 2 -1 3 5 6 7 9 11 11 7 6 7 5 6 5 4 7 9 8 8 8
9 9 7 6 6 6 7 8 7 5 4 5 5 4 6 8 6 5 5 4 4 5 5 4 3 3 3 2 1 3 3 4 5 4 4 4 4 6 5 4 6 5 3 5 5 4 5 6 7 7 6 6 4 5 7 3 2 8 8 4 2 2 4 2 1 7 8 1 0 5 4 3 4 6 9 10 9 9 8 6 5 5 6 7 6 8 11 10
9 9 7 6 7 7 7 8 8 5 3 6 6 5 7 7 5 5 5 4 4 6 5 3 2 3 4 2 2 2 2 4 4 3 4 4 3 5 6 5 6 5 4 5 6 4 3 5 8 7 7 7 4 6 8 2 3 8 6 6 7 4 4 2 3 10 6 -2 1 5 3 1 2 5 9 11 10 8 6 5 5 7 7 5 6 10 12 11
8 7 6 6 7 7 8 9 7 4 4 7 7 6 7 6 5 5 5 4 5 5 4 2 2 3 3 3 3 2 2 4 3 3 5 3 2 5 6 5 6 5 5 6 7 5 1 4 8 5 6 9 5 4 6 2 4 7 5 7 9 6 5 5 4 7 3 -0 4 5 3 2 2 6 10 9 7 6 6 7 8 9 9 8 9 10 10 10
7 7 7 7 7 7 8 7 4 4 6 7 5 6 7 5 5 6 4 5 5 4 3 3 2 2 2 3 2 2 3 3 1 4 6 2 3 6 5 5 6 6 6 7 6 5 2 3 7 4 3 9 9 4 4 3 5 6 4 8 10 8 7 5 3 5 6 4 5 5 3 2 4 8 8 6 5 5 7 10 11 12 13 11 10 11 10 11
7 7 7 8 8 8 6 5 5 6 7 5 5 7 6 5 6 5 4 5 3 2 3 3 1 2 2 2 2 2 3 2 3 6 4 2 5 6 3 5 7 6 7 7 5 6 4 3 7 4 -2 6 12 6 3 5 4 3 6 10 11 8 5 3 3 7 7 4 4 5 3 3 7 8 4 3 6 9 11 13 12 12 10 9 11 11 10 10
6 7 7 7 7 7 5 5 6 7 6 5 6 7 5 5 6 3 2 4 2 1 2 2 2 2 2 2 2 2 1 2 4 5 3 3 5 6 4 5 6 6 8 7 5 8 7 5 9 4 -5 4 14 6 2 6 4 5 10 10 8 5 3 4 7 8 6 4 4 4 4 6 8 5 3 7 12 12 11 10 8 8 9 9 10 10 9 9
7 8 8 6 5 4 4 6 7 6 5 4 6 5 4 5 5 2 1 3 2 1 1 2 2 1 2 2 2 1 1 4 5 4 4 4 4 6 7 5 5 8 9 7 6 8 8 7 9 4 -3 4 12 6 3 5 4 8 11 7 5 6 5 5 7 5 4 5 7 8 8 8 6 5 9 14 12 8 7 7 9 13 14 12 10 10 12 12
Height
5780 5780 5781 5782 5783 5784 5785 5786 5787 5788 5789 5790 5790 5791 5791 5792 5792 5792 5792 5792 5792 5792 5792 5791 5791 5791 5792 5792 5792 5791 5791 5791 5792 5791 5791 5791 5790 5789 5789 5788 5787 5787 5786 5785 5785 5784 5784 5783 5783 5783 5782 5782 5781 5781 5781 5780 5780 5779 5779 5778 5779 5779 5777 5776 5777 5776 5774 5773 5773 5774 5774 5773 5773 5772 5770 5770 5769 5769 5768 5767 5768 5767 5766 5765 5765 5765 5764 5764
5780 5780 5781 5782 5783 5784 5785 5786 5787 5788 5789 5790 5790 5791 5791 5791 5792 5792 5792 5791 5791 5791 5791 5791 5791 5791 5791 5791 5791 5791 5790 5790 5790 5789 5789 5789 5788 5787 5787 5786 5786 5785 5785 5784 5783 5783 5782 5782 5781 5781 5780 5780 5779 5779 5779 5778 5778 5777 5776 5776 5776 5776 5775 5775 5775 5774 5772 5770 5769 5771 5771 5770 5770 5769 5767 5766 5766 5765 5764 5764 5764 5762 5761 5761 5760 5760 5759 5759
5780 5781 5782 5783 5784 5785 5786 5787 5788 5789 5789 5790 5790 5791 5791 5791 5791 5791 5791 5791 5791 5791 5791 5791 5791 5790 5790 5790 5790 5789 5789 5789 5789 5788 5788 5787 5786 5786 5785 5785 5784 5783 5783 5782 5781 5781 5780 5780 5780 5779 5778 5778 5778 5778 5776 5776 5776 5774 5774 5774 5774 5773 5772 5772 5772 5771 5769 5768 5766 5767 5768 5766 5766 5766 5764 5763 5763 5762 5761 5761 5759 5758 5757 5757 5756 5755 5755 5754
5781 5782 5783 5783 5785 5786 5787 5788 5788 5789 5790 5790 5790 5790 5790 5790 5791 5791 5791 5791 5790 5790 5790 5790 5790 5789 5789 5789 5788 5788 5787 5788 5788 5787 5786 5786 5785 5784 5784 5783 5782 5782 5781 5780 5780 5779 5778 5778 5778 5777 5777 5776 5776 5776 5774 5774 5774 5771 5772 5772 5771 5770 5769 5770 5770 5767 5766 5765 5763 5763 5765 5763 5762 5762 5761 5760 5759 5759 5759 5757 5755 5755 5754 5753 5752 5752 5751 5750
5782 5783 5784 5785 5786 5787 5788 5788 5789 5789 5790 5790 5790 5790 5790 5790 5790 5790 5790 5790 5789 5789 5789 5789 5789 5788 5788 5787 5787 5786 5786 5786 5786 5786 5785 5784 5784 5783 5782 5781 5781 5780 5779 5779 5778 5777 5777 5776 5776 5775 5775 5774 5773 5774 5772 5772 5772 5770 5770 5770 5768 5767 5766 5767 5767 5765 5764 5763 5761 5760 5760 5760 5759 5758 5757 5756 5755 5755 5756 5754 5752 5752 5751 5750 5749 5748 5748 5747
5783 5784 5785 5786 5787 5787 5788 5789 5789 5789 5790 5790 5790 5790 5790 5790 5790 5789 5789 5788 5788 5788 5788 5788 5787 5787 5787 5786 5786 5785 5785 5785 5785 5784 5784 5783 5782 5782 5781 5780 5779 5779 5778 5777 5776 5776 5775 5774 5774 5773 5773 5772 5771 5771 5770 5770 5769 5768 5768 5768 5766 5765 5764 5764 5763 5762 5761 5760 5759 5758 5757 5756 5756 5755 5754 5753 5752 5751 5751 5751 5749 5749 5748 5746 5746 5745 5744 5743
5784 5785 5786 5786 5787 5788 5788 5788 5789 5789 5789 5790 5789 5789 5789 5789 5789 5788 5788 5788 5787 5787 5787 5787 5786 5786 5786 5785 5785 5785 5785 5784 5784 5783 5783 5782 5781 5780 5779 5779 5778 5777 5776 5776 5775 5774 5773 5772 5772 5771 5770 5770 5769 5769 5768 5767 5767 5766 5765 5765 5764 5763 5762 5761 5760 5759 5758 5757 5756 5755 5754 5753 5752 5751 5751 5750 5749 5748 5747 5747 5746 5745 5745 5743 5742 5741 5740 5739
5785 5785 5786 5787 5787 5788 5788 5788 5789 5789 5789 5789 5789 5788 5788 5788 5787 5787 5787 5787 5787 5786 5786 5786 5786 5785 5785 5785 5784 5784 5784 5783 5783 5782 5781 5781 5780 5779 5778 5778 5777 5776 5775 5774 5774 5773 5772 5771 5770 5770 5769 5768 5767 5767 5766 5765 5765 5764 5762 5763 5761 5760 5759 5758 5757 5756 5755 5754 5753 5752 5751 5750 5749 5748 5748 5746 5745 5744 5743 5743 5742 5742 5741 5739 5738 5737 5736 5735
5785 5786 5786 5787 5787 5788 5788 5788 5788 5789 5789 5789 5788 5788 5787 5787 5787 5787 5786 5786 5786 5786 5786 5786 5785 5785 5784 5784 5784 5783 5783 5782 5781 5781 5780 5779 5778 5778 5777 5776 5776 5775 5774 5773 5772 5771 5771 5770 5769 5768 5767 5767 5766 5765 5764 5762 5762 5762 5760 5760 5759 5758 5757 5756 5755 5754 5752 5751 5750 5749 5748 5748 5746 5745 5745 5744 5741 5740 5740 5739 5738 5737 5736 5735 5734 5733 5732 5731
5786 5786 5787 5787 5787 5788 5788 5788 5788 5788 5788 5788 5788 5787 5787 5787 5787 5787 5786 5786 5786 5786 5785 5785 5785 5785 5784 5783 5783 5782 5782 5781 5780 5780 5779 5778 5777 5776 5776 5775 5774 5773 5773 5772 5771 5770 5769 5768 5767 5767 5766 5765 5764 5763 5762 5761 5760 5759 5758 5757 5757 5756 5754 5753 5752 5751 5749 5748 5747 5746 5745 5745 5743 5742 5742 5740 5737 5736 5736 5735 5734 5733 5732 5731 5729 5728 5727 5726
5786 5787 5787 5787 5788 5788 5788 5788 5788 5788 5788 5788 5788 5788 5787 5787 5787 5787 5786 5786 5786 5785 5785 5785 5784 5784 5783 5783 5782 5781 5781 5780 5779 5779 5778 5777 5776 5775 5774 5774 5773 5772 5771 5770 5769 5768 5768 5767 5766 5765 5764 5763 5763 5761 5760 5759 5758 5757 5756 5755 5754 5753 5752 5751 5749 5748 5746 5745 5743 5742 5742 5741 5739 5738 5738 5736 5734 5732 5731 5730 5729 5728 5727 5726 5725 5724 5722 5721
5786 5787 5787 5787 5788 5788 5789 5789 5789 5789 5789 5789 5788 5788 5788 5787 5787 5787 5786 5786 5786 5785 5785 5785 5784 5783 5783 5782 5781 5780 5780 5779 5779 5778 5777 5776 5775 5774 5773 5772 5772 5771 5770 5769 5768 5767 5766 5766 5765 5764 5763 5762 5761 5760 5758 5757 5756 5754 5753 5752 5751 5749 5749 5748 5746 5744 5743 5741 5739 5738 5738 5737 5735 5734 5733 5731 5729 5728 5727 5726 5724 5723 5722 5721 5720 5719 5718 5717
5787 5787 5788 5788 5789 5789 5789 5789 5789 5789 5789 5789 5788 5788 5788 5788 5787 5787 5786 5786 5786 5785 5785 5784 5784 5783 5782 5781 5781 5780 5779 5778 5777 5777 5776 5775 5774 5773 5772 5771 5771 5770 5769 5768 5767 5766 5765 5764 5763 5762 5761 5760 5759 5757 5756 5755 5753 5752 5750 5748 5747 5746 5746 5745 5742 5741 5739 5737 5735 5734 5734 5733 5732 5731 5729 5727 5725 5723 5723 5721 5720 5719 5718 5717 5716 5715 5714 5713
5787 5788 5789 5789 5789 5789 5789 5789 5789 5789 5789 5789 5788 5788 5788 5787 5787 5787 5786 5786 5785 5785 5784 5784 5783 5782 5782 5781 5780 5779 5778 5777 5776 5775 5775 5774 5773 5772 5771 5770 5770 5769 5768 5767 5766 5765 5764 5763 5761 5760 5759 5757 5756 5755 5753 5752 5750 5748 5747 5745 5743 5742 5742 5741 5739 5737 5736 5734 5731 5729 5729 5729 5728 5727 5725 5723 5721 5720 5719 5718 5716 5715 5714 5713 5712 5710 5709 5708
5789 5789 5790 5790 5790 5790 5790 5790 5790 5789 5789 5789 5788 5788 5787 5787 5787 5786 5786 5785 5785 5784 5784 5783 5783 5782 5781 5780 5779 5778 5777 5776 5775 5774 5773 5773 5772 5771 5770 5769 5769 5768 5767 5766 5764 5763 5762 5761 5759 5758 5756 5755 5753 5752 5750 5749 5747 5745 5743 5741 5739 5738 5737 5736 5735 5734 5732 5730 5728 5726 5725 5724 5723 5722 5721 5719 5717 5716 5715 5714 5712 5711 5710 5709 5707 5706 5705 5704
5790 5790 5790 5790 5790 5790 5790 5790 5790 5789 5789 5789 5788 5788 5787 5787 5786 5786 5785 5785 5784 5784 5783 5783 5782 5781 5780 5779 5779 5778 5776 5775 5774 5773 5772 5771 5771 5770 5769 5768 5767 5766 5765 5764 5763 5761 5760 5758 5757 5755 5754 5752 5750 5748 5746 5745 5743 5741 5741 5739 5736 5734 5733 5731 5731 5730 5727 5726 5725 5722 5721 5720 5718 5717 5716 5715 5713 5712 5711 5709 5708 5707 5706 5704 5703 5702 5701 5700
5790 5790 5790 5790 5790 5790 5789 5789 5789 5789 5789 5789 5788 5788 5787 5786 5786 5785 5785 5784 5784 5783 5782 5782 5781 5780 5779 5778 5778 5777 5776 5775 5774 5773 5772 5771 5770 5769 5768 5767 5766 5765 5763 5762 5760 5759 5757 5756 5754 5752 5751 5749 5746 5745 5743 5741 5739 5737 5737 5736 5733 5731 5730 5728 5727 5726 5723 5722 5721 5719 5718 5717 5715 5713 5713 5711 5708 5708 5707 5705 5704 5703 5702 5700 5699 5698 5697 5696
5791 5791 5790 5790 5790 5790 5789 5789 5788 5788 5788 5788 5787 5787 5786 5786 5785 5785 5784 5784 5783 5782 5781 5781 5780 5779 5778 5777 5777 5776 5775 5774 5773 5772 5771 5770 5769 5768 5767 5766 5764 5763 5761 5759 5758 5756 5755 5753 5751 5749 5748 5746 5743 5742 5740 5738 5736 5733 5732 5731 5730 5729 5727 5725 5724 5722 5720 5719 5718 5715 5714 5714 5711 5710 5710 5708 5705 5704 5703 5701 5700 5699 5698 5696 5695 5694 5693 5691
5791 5791 5790 5790 5789 5789 5788 5788 5788 5788 5787 5787 5787 5786 5786 5785 5785 5784 5784 5783 5782 5782 5781 5780 5779 5778 5778 5777 5776 5775 5774 5774 5773 5772 5771 5769 5768 5767 5765 5764 5762 5761 5759 5757 5755 5754 5752 5750 5748 5746 5744 5743 5741 5739 5737 5735 5734 5732 5730 5728 5726 5726 5724 5722 5721 5719 5717 5716 5714 5712 5712 5710 5707 5706 5706 5705 5702 5701 5699 5698 5696 5695 5694 5693 5691 5690 5689 5688
5791 5790 5790 5789 5789 5788 5788 5787 5787 5787 5787 5787 5786 5786 5785 5785 5784 5784 5783 5783 5782 5781 5780 5780 5779 5778 5777 5776 5775 5774 5773 5773 5772 5771 5769 5768 5767 5765 5764 5762 5760 5758 5756 5755 5753 5751 5749 5747 5745 5743 5741 5740 5738 5736 5735 5733 5731 5730 5728 5726 5724 5723 5721 5719 5718 5716 5714 5713 5711 5709 5708 5706 5704 5703 5702 5701 5700 5698 5696 5695 5693 5692 5690 5689 5688 5686 5685 5684
5790 5790 5790 5789 5789 5788 5788 5787 5787 5787 5787 5786 5786 5785 5785 5785 5784 5784 5783 5782 5781 5781 5780 5779 5778 5777 5776 5775 5774 5773 5773 5772 5771 5770 5768 5767 5765 5763 5762 5760 5758 5756 5754 5752 5750 5748 5746 5744 5742 5740 5738 5737 5735 5733 5732 5730 5729 5727 5726 5724 5722 5721 5719 5717 5716 5714 5711 5710 5709 5707 5706 5704 5701 5700 5698 5697 5696 5695 5693 5691 5690 5688 5687 5686 5684 5683 5681 5680
5790 5790 5789 5789 5789 5788 5788 5787 5787 5787 5786 5786 5786 5785 5785 5784 5784 5783 5782 5781 5781 5780 5779 5778 5778 5777 5776 5775 5774 5773 5772 5771 5769 5768 5766 5765 5763 5761 5759 5757 5755 5753 5751 5749 5747 5745 5743 5741 5739 5738 5736 5734 5732 5731 5729 5728 5726 5725 5723 5722 5720 5718 5717 5715 5713 5711 5709 5708 5707 5704 5704 5702 5700 5698 5696 5694 5693 5691 5690 5689 5687 5685 5684 5682 5681 5679 5678 5677
5790 5789 5789 5788 5788 5788 5787 5787 5787 5787 5786 5786 5785 5785 5784 5784 5783 5782 5781 5781 5780 5779 5778 5778 5777 5776 5775 5774 5773 5772 5771 5770 5768 5767 5765 5763 5760 5758 5756 5754 5752 5750 5748 5746 5744 5742 5740 5738 5737 5735 5733 5732 5730 5728 5727 5726 5725 5723 5721 5719 5718 5716 5714 5713 5712 5710 5707 5706 5705 5703 5701 5700 5697 5696 5694 5692 5691 5689 5687 5686 5684 5683 5681 5679 5678 5676 5675 5673
5789 5789 5788 5788 5787 5787 5787 5787 5787 5786 5786 5785 5785 5784 5783 5783 5782 5781 5781 5780 5780 5779 5778 5777 5777 5776 5775 5774 5773 5771 5770 5768 5766 5764 5763 5760 5758 5756 5754 5751 5749 5747 5745 5743 5741 5739 5737 5736 5734 5733 5731 5730 5728 5727 5725 5724 5723 5722 5720 5718 5717 5715 5713 5711 5710 5708 5706 5704 5702 5700 5699 5698 5696 5694 5692 5689 5688 5686 5684 5682 5681 5679 5678 5676 5674 5673 5671 5670
5788 5788 5788 5787 5787 5786 5786 5786 5786 5786 5785 5785 5784 5783 5783 5782 5782 5781 5780 5780 5779 5779 5778 5777 5776 5775 5774 5773 5772 5770 5768 5766 5764 5762 5760 5758 5756 5753 5751 5749 5747 5744 5742 5741 5739 5737 5736 5734 5733 5731 5730 5729 5727 5726 5724 5723 5722 5721 5719 5717 5716 5714 5712 5710 5708 5707 5705 5703 5701 5698 5697 5697 5695 5691 5689 5687 5685 5683 5681 5679 5678 5676 5674 5672 5670 5669 5667 5666
5788 5787 5787 5787 5786 5786 5786 5786 5786 5785 5785 5784 5783 5783 5782 5782 5781 5781 5780 5780 5779 5778 5778 5777 5776 5775 5773 5772 5770 5768 5766 5764 5762 5760 5758 5756 5753 5751 5749 5746 5744 5742 5741 5739 5738 5736 5735 5734 5732 5731 5730 5728 5727 5725 5724 5722 5721 5720 5718 5716 5715 5713 5711 5709 5706 5704 5702 5701 5699 5696 5693 5693 5694 5689 5685 5684 5682 5680 5678 5676 5674 5672 5671 5669 5667 5665 5664 5662
5787 5787 5787 5786 5786 5786 5785 5785 5785 5784 5784 5783 5783 5782 5782 5781 5781 5780 5780 5780 5779 5778 5777 5776 5775 5774 5772 5771 5769 5767 5765 5763 5761 5759 5756 5754 5752 5749 5747 5745 5743 5742 5740 5739 5737 5736 5735 5733 5732 5731 5729 5728 5726 5725 5723 5722 5720 5718 5717 5715 5713 5711 5709 5707 5704 5702 5700 5699 5697 5695 5690 5688 5690 5688 5682 5680 5679 5676 5674 5672 5670 5669 5667 5666 5664 5662 5660 5659
5787 5787 5786 5786 5785 5785 5785 5785 5784 5784 5783 5783 5782 5782 5781 5781 5781 5780 5780 5779 5779 5777 5776 5776 5774 5773 5771 5769 5768 5766 5764 5762 5760 5757 5755 5753 5751 5749 5747 5745 5743 5741 5740 5739 5737 5736 5734 5733 5731 5730 5729 5727 5726 5724 5722 5720 5718 5717 5715 5713 5711 5709 5707 5705 5702 5700 5698 5696 5695 5693 5689 5685 5686 5686 5679 5676 5676 5672 5669 5668 5666 5666 5664 5662 5661 5659 5657 5655
5787 5786 5786 5785 5785 5784 5784 5784 5784 5784 5783 5783 5782 5782 5781 5781 5781 5780 5780 5779 5778 5777 5776 5775 5773 5772 5770 5768 5767 5765 5763 5761 5759 5757 5754 5752 5751 5749 5747 5745 5743 5742 5740 5739 5737 5736 5734 5733 5731 5729 5728 5726 5725 5723 5721 5719 5717 5715 5713 5711 5709 5706 5704 5702 5700 5698 5695 5694 5692 5690 5687 5682 5683 5683 5676 5672 5671 5668 5664 5662 5661 5662 5661 5660 5658 5655 5653 5652
5786 5786 5785 5785 5784 5784 5784 5784 5783 5783 5783 5782 5782 5782 5781 5781 5781 5780 5779 5778 5777 5777 5776 5774 5773 5771 5769 5768 5766 5764 5762 5760 5758 5756 5754 5752 5751 5749 5747 5745 5744 5742 5740 5739 5737 5736 5734 5732 5731 5729 5727 5725 5723 5721 5720 5717 5715 5713 5711 5709 5707 5705 5703 5701 5698 5696 5692 5691 5689 5687 5684 5680 5679 5679 5674 5668 5665 5662 5660 5658 5657 5656 5656 5655 5655 5652 5649 5647
5785 5785 5784 5784 5784 5783 5783 5783 5783 5783 5782 5782 5781 5781 5781 5781 5780 5780 5779 5778 5777 5776 5775 5774 5772 5771 5769 5767 5766 5764 5762 5760 5758 5756 5754 5753 5751 5750 5748 5746 5744 5742 5741 5739 5738 5736 5733 5732 5730 5728 5726 5724 5722 5720 5718 5716 5714 5711 5709 5707 5705 5702 5700 5698 5695 5692 5689 5687 5685 5684 5682 5678 5675 5675 5672 5667 5662 5658 5657 5655 5654 5652 5651 5650 5650 5649 5646 5643
5785 5784 5784 5783 5783 5783 5782 5782 5782 5782 5782 5781 5781 5781 5781 5780 5780 5779 5778 5777 5777 5776 5774 5773 5772 5770 5768 5767 5765 5763 5761 5760 5758 5756 5755 5753 5751 5749 5747 5745 5744 5742 5740 5739 5737 5735 5733 5731 5729 5727 5725 5723 5721 5719 5717 5715 5713 5710 5707 5704 5701 5698 5696 5694 5692 5689 5686 5684 5682 5681 5678 5676 5674 5672 5669 5665 5660 5657 5655 5653 5651 5649 5647 5645 5644 5643 5642 5639
5784 5783 5783 5783 5782 5782 5782 5782 5781 5781 5781 5781 5781 5781 5781 5780 5779 5779 5778 5777 5776 5775 5774 5772 5771 5769 5768 5766 5764 5763 5761 5759 5758 5756 5754 5752 5750 5749 5747 5745 5743 5741 5739 5737 5736 5734 5732 5730 5728 5726 5724 5721 5719 5717 5715 5713 5711 5708 5705 5702 5698 5695 5692 5690 5688 5686 5684 5681 5679 5677 5675 5673 5672 5669 5666 5661 5657 5653 5651 5649 5648 5646 5644 5642 5640 5638 5637 5635
5783 5783 5782 5782 5781 5781 5781 5781 5781 5781 5781 5781 5781 5781 5780 5779 5779 5778 5777 5776 5775 5774 5773 5772 5770 5769 5767 5766 5764 5762 5761 5759 5757 5756 5754 5752 5750 5748 5746 5744 5742 5741 5739 5737 5735 5733 5731 5729 5727 5725 5723 5720 5718 5715 5712 5710 5708 5706 5703 5700 5697 5694 5690 5688 5685 5682 5679 5677 5676 5675 5671 5669 5669 5667 5664 5659 5654 5651 5648 5646 5645 5642 5641 5639 5637 5635 5633 5630
5782 5782 5782 5781 5781 5780 5780 5780 5780 5780 5780 5780 5780 5780 5780 5779 5778 5777 5776 5776 5775 5774 5772 5771 5770 5768 5767 5765 5764 5762 5760 5759 5757 5755 5754 5752 5750 5748 5746 5744 5742 5740 5738 5736 5734 5732 5730 5728 5726 5724 5721 5719 5716 5714 5711 5708 5706 5704 5701 5698 5696 5693 5689 5686 5683 5680 5676 5672 5671 5670 5667 5667 5667 5665 5662 5657 5652 5649 5646 5644 5642 5640 5637 5636 5634 5631 5629 5626
5781 5781 5781 5780 5780 5780 5779 5779 5780 5780 5780 5780 5780 5780 5779 5778 5777 5777 5776 5775 5774 5773 5772 5771 5769 5768 5766 5765 5763 5762 5760 5759 5757 5755 5753 5752 5749 5747 5745 5743 5742 5740 5738 5736 5733 5731 5729 5727 5724 5722 5720 5718 5715 5713 5710 5707 5704 5702 5699 5696 5693 5690 5687 5684 5681 5678 5674 5668 5666 5664 5661 5660 5662 5661 5658 5654 5650 5647 5644 5641 5639 5636 5634 5632 5630 5627 5624 5622
5780 5780 5780 5779 5779 5779 5779 5779 5779 5780 5780 5780 5779 5779 5778 5778 5777 5776 5775 5774 5773 5772 5771 5770 5769 5768 5766 5765 5763 5762 5760 5758 5757 5755 5753 5751 5749 5747 5745 5743 5741 5739 5737 5735 5732 5730 5728 5727 5724 5721 5719 5717 5714 5711 5709 5706 5703 5700 5697 5694 5690 5687 5684 5681 5677 5674 5670 5664 5660 5659 5656 5653 5656 5657 5654 5651 5647 5643 5640 5638 5635 5632 5630 5628 5626 5623 5620 5617
5780 5779 5779 5778 5778 5778 5778 5779 5779 5779 5779 5779 5779 5778 5778 5777 5776 5775 5775 5774 5773 5772 5771 5770 5768 5767 5766 5764 5763 5761 5760 5758 5756 5755 5753 5751 5748 5746 5744 5742 5740 5738 5736 5734 5732 5729 5727 5725 5724 5721 5718 5716 5712 5709 5707 5705 5702 5699 5695 5692 5688 5685 5681 5678 5675 5671 5667 5660 5654 5653 5651 5650 5652 5654 5651 5647 5644 5639 5635 5632 5629 5626 5623 5622 5621 5619 5615 5612
5779 5778 5778 5778 5778 5778 5778 5778 5779 5779 5779 5779 5778 5778 5777 5776 5775 5775 5774 5773 5772 5771 5770 5769 5768 5767 5765 5764 5763 5761 5759 5758 5756 5754 5752 5750 5748 5746 5744 5741 5739 5737 5735 5732 5730 5728 5725 5723 5721 5719 5717 5714 5711 5708 5705 5702 5700 5697 5694 5691 5687 5684 5679 5675 5673 5669 5664 5659 5652 5646 5644 5646 5650 5650 5647 5643 5639 5635 5630 5626 5623 5620 5617 5616 5615 5612 5610 5606
5778 5777 5777 5777 5777 5777 5778 5778 5778 5778 5778 5778 5778 5777 5776 5776 5775 5774 5773 5773 5772 5771 5770 5769 5767 5766 5765 5763 5762 5760 5759 5757 5755 5753 5751 5749 5747 5745 5743 5740 5738 5736 5733 5731 5728 5726 5723 5721 5719 5717 5714 5712 5709 5706 5702 5700 5697 5694 5692 5688 5685 5681 5677 5673 5671 5668 5663 5659 5654 5644 5637 5642 5649 5646 5642 5639 5635 5631 5627 5622 5619 5615 5611 5610 5609 5606 5603 5600
5777 5776 5776 5776 5777 5777 5777 5778 5778 5778 5777 5777 5777 5776 5776 5775 5774 5774 5773 5772 5771 5770 5769 5768 5767 5765 5764 5763 5761 5760 5758 5756 5754 5752 5750 5748 5746 5743 5741 5739 5736 5734 5732 5729 5726 5723 5721 5718 5716 5714 5711 5709 5706 5703 5699 5697 5694 5691 5689 5685 5681 5678 5674 5669 5666 5664 5660 5656 5654 5646 5634 5637 5647 5644 5637 5635 5631 5627 5623 5618 5614 5610 5606 5604 5603 5600 5597 5593
5776 5776 5776 5776 5776 5776 5777 5777 5777 5777 5777 5776 5776 5776 5775 5774 5774 5773 5772 5771 5771 5770 5769 5767 5766 5765 5763 5762 5760 5759 5757 5755 5753 5751 5749 5747 5744 5742 5740 5737 5735 5732 5729 5727 5724 5721 5718 5715 5713 5711 5709 5706 5703 5700 5696 5694 5691 5688 5685 5681 5677 5674 5671 5666 5661 5658 5655 5651 5650 5643 5631 5631 5641 5639 5632 5630 5626 5621 5618 5613 5609 5605 5601 5599 5597 5594 5591 5587
5775 5775 5775 5775 5776 5776 5776 5777 5776 5776 5776 5776 5775 5775 5774 5774 5773 5772 5771 5771 5770 5769 5768 5766 5765 5764 5762 5761 5759 5757 5756 5754 5752 5750 5747 5745 5743 5740 5738 5735 5733 5730 5727 5724 5721 5718 5715 5712 5709 5706 5705 5703 5701 5697 5693 5690 5687 5684 5682 5678 5673 5670 5666 5662 5658 5653 5649 5647 5644 5636 5627 5626 5632 5631 5626 5623 5619 5614 5611 5606 5603 5600 5596 5594 5591 5588 5585 5581
5774 5774 5774 5775 5775 5775 5776 5776 5776 5775 5775 5775 5775 5774 5774 5773 5772 5772 5771 5770 5769 5768 5767 5765 5764 5763 5761 5760 5758 5756 5754 5752 5750 5748 5746 5743 5741 5738 5736 5733 5731 5728 5724 5721 5718 5715 5712 5708 5704 5701 5698 5696 5695 5693 5688 5684 5681 5679 5678 5675 5671 5668 5663 5658 5655 5650 5645 5644 5639 5630 5625 5624 5626 5625 5621 5617 5611 5606 5603 5599 5596 5593 5589 5586 5584 5581 5577 5573
5773 5773 5774 5774 5774 5775 5775 5775 5775 5775 5774 5774 5774 5773 5773 5772 5771 5771 5770 5769 5768 5767 5766 5764 5763 5761 5760 5758 5756 5754 5752 5750 5748 5746 5744 5741 5739 5736 5734 5731 5728 5725 5722 5719 5716 5712 5709 5706 5702 5697 5694 5691 5689 5687 5683 5679 5677 5675 5674 5671 5668 5665 5660 5655 5651 5646 5642 5639 5632 5625 5622 5620 5621 5621 5618 5611 5604 5600 5597 5593 5589 5586 5582 5579 5576 5572 5568 5564
5772 5773 5773 5774 5774 5774 5774 5774 5774 5774 5774 5773 5773 5772 5772 5771 5770 5770 5769 5768 5767 5766 5764 5763 5761 5760 5758 5756 5755 5753 5750 5748 5746 5744 5741 5739 5737 5734 5731 5728 5726 5722 5719 5716 5712 5709 5705 5703 5701 5696 5692 5690 5687 5684 5680 5675 5672 5671 5670 5667 5664 5659 5655 5651 5646 5642 5638 5631 5625 5623 5619 5610 5611 5616 5611 5602 5597 5592 5589 5586 5582 5579 5575 5572 5569 5566 5562 5557
5772 5772 5773 5773 5773 5773 5773 5773 5773 5773 5773 5772 5772 5771 5771 5770 5769 5769 5768 5767 5766 5764 5763 5761 5760 5758 5757 5755 5753 5751 5749 5747 5744 5742 5739 5736 5734 5732 5728 5726 5723 5719 5716 5713 5709 5705 5701 5699 5697 5692 5689 5687 5684 5681 5677 5672 5668 5666 5665 5664 5660 5655 5650 5645 5640 5637 5634 5624 5617 5621 5618 5605 5604 5609 5603 5594 5590 5586 5583 5579 5574 5571 5567 5563 5560 5557 5554 5548
5771 5771 5772 5772 5772 5772 5772 5772 5772 5772 5772 5771 5771 5770 5770 5769 5768 5767 5766 5765 5764 5763 5762 5760 5758 5757 5755 5752 5750 5748 5746 5744 5742 5740 5737 5734 5731 5729 5726 5723 5720 5716 5713 5709 5706 5702 5696 5694 5692 5687 5683 5683 5681 5676 5672 5667 5663 5661 5659 5658 5656 5650 5645 5640 5635 5632 5628 5617 5611 5614 5612 5603 5601 5600 5595 5588 5583 5579 5576 5572 5568 5563 5559 5555 5551 5548 5544 5539
5770 5770 5771 5771 5771 5771 5771 5771 5771 5771 5771 5770 5770 5769 5768 5768 5767 5766 5765 5764 5763 5761 5760 5758 5756 5755 5753 5750 5748 5746 5743 5741 5739 5737 5734 5731 5728 5725 5722 5719 5716 5713 5709 5706 5702 5698 5692 5689 5687 5682 5676 5677 5677 5672 5666 5662 5657 5655 5654 5653 5650 5644 5639 5633 5629 5625 5620 5612 5607 5605 5600 5598 5597 5591 5584 5580 5576 5570 5567 5563 5559 5554 5549 5545 5542 5538 5534 5529
5769 5770 5770 5770 5770 5770 5770 5770 5770 5770 5770 5769 5768 5768 5767 5766 5766 5765 5764 5762 5761 5759 5758 5756 5754 5753 5751 5748 5746 5743 5740 5738 5736 5733 5730 5728 5724 5721 5718 5715 5712 5708 5705 5702 5697 5693 5688 5684 5681 5676 5669 5669 5671 5666 5660 5656 5651 5648 5649 5647 5642 5637 5633 5627 5621 5617 5611 5605 5602 5597 5589 5588 5589 5583 5575 5571 5567 5561 5557 5553 5548 5544 5539 5534 5530 5526 5522 5518
5768 5769 5769 5769 5769 5769 5769 5769 5769 5769 5768 5768 5767 5767 5766 5765 5764 5763 5762 5760 5759 5757 5755 5754 5752 5750 5748 5746 5743 5741 5738 5735 5732 5729 5727 5724 5721 5717 5713 5710 5707 5703 5700 5697 5692 5689 5684 5679 5676 5671 5663 5662 5664 5659 5654 5649 5643 5641 5641 5639 5634 5629 5624 5619 5613 5607 5601 5595 5592 5588 5581 5577 5577 5572 5567 5563 5558 5553 5548 5543 5538 5534 5530 5525 5519 5515 5511 5507
5767 5768 5768 5768 5768 5768 5768 5768 5768 5767 5767 5766 5766 5765 5764 5763 5762 5761 5760 5759 5757 5755 5753 5751 5749 5747 5745 5743 5740 5738 5735 5732 5729 5726 5723 5720 5717 5713 5709 5705 5702 5699 5695 5691 5687 5684 5679 5674 5671 5665 5657 5656 5656 5652 5646 5640 5635 5634 5633 5628 5625 5621 5615 5611 5607 5601 5594 5587 5581 5577 5571 5567 5564 5560 5557 5554 5550 5545 5540 5534 5529 5523 5519 5515 5510 5505 5500 5496